カタログに戻る

STARLINK-34134

運用中通信VLEO
NORAD 63899·PAYLOAD·🇺🇸 United States

打ち上げ May 10, 2025 から Cape Canaveral Space Force Station

Loading…

次のパス (今後24時間)

TLE

最新Source: CelesTrak SupGP

元期: Sep 14, 2026, 20:51 UTC

1 63899C 25095K   26257.86923611  .00009068  00000+0  32846-3 0  2579
2 63899  42.9996 187.9449 0001332 259.0274 295.0858 15.27573817    10

AllMySatでSTARLINK-34134をリアルタイム追跡

Download on the App Store